Time,TemperatureF,DewpointF,PressureIn,WindDirection,WindDirectionDegrees,WindSpeedMPH,WindSpeedGustMPH,Humidity,HourlyPrecipIn,Conditions,Clouds,dailyrainin,SoftwareType,DateUTC
2013-08-24 00:02:00,62.2,56.3,30.34,NNW,328,0.0,0.0,81,0.00,,,0.00,VWS V14.00,2013-08-24 04:02:00,
2013-08-24 00:04:00,62.2,56.3,30.34,NNW,330,0.0,0.0,81,0.00,,,0.00,VWS V14.00,2013-08-24 04:04:00,
2013-08-24 00:07:00,62.2,56.3,30.34,NNW,330,0.0,0.0,81,0.00,,,0.00,VWS V14.00,2013-08-24 04:07:00,
2013-08-24 00:12:00,61.9,56.0,30.34,NNW,328,0.0,0.0,81,0.00,,,0.00,VWS V14.00,2013-08-24 04:12:00,
2013-08-24 00:17:00,61.9,56.0,30.34,NNW,328,0.0,0.0,81,0.00,,,0.00,VWS V14.00,2013-08-24 04:17:00,
2013-08-24 00:23:00,61.7,55.8,30.34,NNW,330,0.0,0.0,81,0.00,,,0.00,VWS V14.00,2013-08-24 04:23:00,
2013-08-24 00:28:00,61.5,55.6,30.34,NNW,328,0.0,0.0,81,0.00,,,0.00,VWS V14.00,2013-08-24 04:28:00,
2013-08-24 00:34:00,61.3,55.5,30.34,NNW,328,0.0,0.0,81,0.00,,,0.00,VWS V14.00,2013-08-24 04:34:00,
2013-08-24 00:39:00,61.3,55.5,30.34,NNW,330,0.0,0.0,81,0.00,,,0.00,VWS V14.00,2013-08-24 04:39:00,
2013-08-24 00:44:00,61.0,55.1,30.34,NNW,328,0.0,0.0,81,0.00,,,0.00,VWS V14.00,2013-08-24 04:44:00,
2013-08-24 00:49:00,60.8,55.3,30.34,NNW,328,0.0,0.0,82,0.00,,,0.00,VWS V14.00,2013-08-24 04:49:00,
2013-08-24 00:55:00,60.6,55.1,30.34,NNW,330,0.0,0.0,82,0.00,,,0.00,VWS V14.00,2013-08-24 04:55:00,
2013-08-24 01:01:00,60.6,55.1,30.34,NNW,330,0.0,0.0,82,0.00,,,0.00,VWS V14.00,2013-08-24 05:01:00,
2013-08-24 01:07:00,60.4,55.3,30.34,NNW,330,0.0,0.0,83,0.00,,,0.00,VWS V14.00,2013-08-24 05:07:00,
2013-08-24 01:12:00,60.4,55.3,30.34,NNW,328,0.0,0.0,83,0.00,,,0.00,VWS V14.00,2013-08-24 05:12:00,
2013-08-24 01:17:00,60.3,55.1,30.34,NNW,328,0.0,0.0,83,0.00,,,0.00,VWS V14.00,2013-08-24 05:17:00,
2013-08-24 01:23:00,60.3,55.4,30.34,NNW,328,0.0,0.0,84,0.00,,,0.00,VWS V14.00,2013-08-24 05:23:00,
2013-08-24 01:28:00,60.3,55.4,30.34,NNW,329,0.0,0.0,84,0.00,,,0.00,VWS V14.00,2013-08-24 05:28:00,
2013-08-24 01:33:00,60.3,55.4,30.34,NNW,328,0.0,0.0,84,0.00,,,0.00,VWS V14.00,2013-08-24 05:33:00,
2013-08-24 01:38:00,60.1,55.2,30.34,NNW,330,0.0,0.0,84,0.00,,,0.00,VWS V14.00,2013-08-24 05:38:00,
2013-08-24 01:44:00,59.9,55.4,30.34,NNW,328,0.0,0.0,85,0.00,,,0.00,VWS V14.00,2013-08-24 05:44:00,
2013-08-24 01:49:00,59.9,55.7,30.34,NNW,330,0.0,0.0,86,0.00,,,0.00,VWS V14.00,2013-08-24 05:49:00,
2013-08-24 01:54:00,59.7,55.5,30.34,NNW,328,0.0,0.0,86,0.00,,,0.00,VWS V14.00,2013-08-24 05:54:00,
2013-08-24 01:59:00,59.7,55.5,30.34,NNW,329,0.0,0.0,86,0.00,,,0.00,VWS V14.00,2013-08-24 05:59:00,
2013-08-24 02:05:00,59.7,55.5,30.34,NNW,329,0.0,0.0,86,0.00,,,0.00,VWS V14.00,2013-08-24 06:05:00,
2013-08-24 02:11:00,59.5,55.7,30.34,NNW,329,0.0,0.0,87,0.00,,,0.00,VWS V14.00,2013-08-24 06:11:00,
2013-08-24 02:16:00,59.4,55.5,30.34,NNW,328,0.0,0.0,87,0.00,,,0.00,VWS V14.00,2013-08-24 06:16:00,
2013-08-24 02:22:00,59.2,55.3,30.34,NNW,328,0.0,0.0,87,0.00,,,0.00,VWS V14.00,2013-08-24 06:22:00,
2013-08-24 02:27:00,59.2,55.3,30.34,NNW,328,0.0,0.0,87,0.00,,,0.00,VWS V14.00,2013-08-24 06:27:00,
2013-08-24 02:32:00,59.2,55.3,30.34,NNW,329,0.0,0.0,87,0.00,,,0.00,VWS V14.00,2013-08-24 06:32:00,
2013-08-24 02:37:00,59.0,55.1,30.34,NNW,330,0.0,0.0,87,0.00,,,0.00,VWS V14.00,2013-08-24 06:37:00,
2013-08-24 02:43:00,58.8,55.3,30.34,NNW,330,0.0,0.0,88,0.00,,,0.00,VWS V14.00,2013-08-24 06:43:00,
2013-08-24 02:48:00,58.8,55.3,30.34,NNW,330,0.0,0.0,88,0.00,,,0.00,VWS V14.00,2013-08-24 06:48:00,
2013-08-24 02:54:00,58.6,55.1,30.34,NNW,328,0.0,0.0,88,0.00,,,0.00,VWS V14.00,2013-08-24 06:54:00,
2013-08-24 02:59:00,58.6,55.1,30.34,NNW,330,0.0,0.0,88,0.00,,,0.00,VWS V14.00,2013-08-24 06:59:00,
2013-08-24 03:05:00,58.5,54.9,30.34,NNW,329,0.0,0.0,88,0.00,,,0.00,VWS V14.00,2013-08-24 07:05:00,
2013-08-24 03:11:00,58.5,55.2,30.34,NNW,328,0.0,0.0,89,0.00,,,0.00,VWS V14.00,2013-08-24 07:11:00,
2013-08-24 03:16:00,58.5,55.2,30.34,NNW,328,0.0,0.0,89,0.00,,,0.00,VWS V14.00,2013-08-24 07:16:00,
2013-08-24 03:22:00,58.3,55.1,30.34,NNW,328,0.0,0.0,89,0.00,,,0.00,VWS V14.00,2013-08-24 07:22:00,
2013-08-24 03:27:00,58.3,55.1,30.34,NNW,329,0.0,0.0,89,0.00,,,0.00,VWS V14.00,2013-08-24 07:27:00,
2013-08-24 03:32:00,58.1,54.9,30.34,NNW,330,0.0,0.0,89,0.00,,,0.00,VWS V14.00,2013-08-24 07:32:00,
2013-08-24 03:37:00,58.1,54.9,30.34,NNW,330,0.0,0.0,89,0.00,,,0.00,VWS V14.00,2013-08-24 07:37:00,
2013-08-24 03:42:00,58.1,54.9,30.34,NNW,328,0.0,0.0,89,0.00,,,0.00,VWS V14.00,2013-08-24 07:42:00,
2013-08-24 03:48:00,57.9,55.0,30.34,NNW,330,0.0,0.0,90,0.00,,,0.00,VWS V14.00,2013-08-24 07:48:00,
2013-08-24 03:54:00,57.9,55.0,30.34,NNW,329,0.0,0.0,90,0.00,,,0.00,VWS V14.00,2013-08-24 07:54:00,
2013-08-24 04:00:00,57.9,55.0,30.34,NNW,330,0.0,0.0,90,0.00,,,0.00,VWS V14.00,2013-08-24 08:00:00,
2013-08-24 04:05:00,57.7,54.8,30.34,NNW,330,0.0,0.0,90,0.00,,,0.00,VWS V14.00,2013-08-24 08:05:00,
2013-08-24 04:10:00,57.7,54.8,30.34,NNW,330,0.0,0.0,90,0.00,,,0.00,VWS V14.00,2013-08-24 08:10:00,
2013-08-24 04:15:00,57.6,55.0,30.34,NNW,328,0.0,0.0,91,0.00,,,0.00,VWS V14.00,2013-08-24 08:15:00,
2013-08-24 04:20:00,57.6,55.0,30.34,NNW,330,0.0,0.0,91,0.00,,,0.00,VWS V14.00,2013-08-24 08:20:00,
2013-08-24 04:25:00,57.4,54.8,30.34,NNW,330,0.0,0.0,91,0.00,,,0.00,VWS V14.00,2013-08-24 08:25:00,
2013-08-24 04:31:00,57.4,54.8,30.34,NNW,330,0.0,0.0,91,0.00,,,0.00,VWS V14.00,2013-08-24 08:31:00,
2013-08-24 04:36:00,57.4,54.8,30.34,NNW,328,0.0,0.0,91,0.00,,,0.00,VWS V14.00,2013-08-24 08:36:00,
2013-08-24 04:42:00,57.2,54.6,30.34,NNW,328,0.0,0.0,91,0.00,,,0.00,VWS V14.00,2013-08-24 08:42:00,
2013-08-24 04:47:00,57.2,54.6,30.34,NNW,328,0.0,0.0,91,0.00,,,0.00,VWS V14.00,2013-08-24 08:47:00,
2013-08-24 04:53:00,57.2,54.6,30.34,NNW,328,0.0,0.0,91,0.00,,,0.00,VWS V14.00,2013-08-24 08:53:00,
2013-08-24 04:59:00,57.0,54.4,30.34,NNW,328,0.0,0.0,91,0.00,,,0.00,VWS V14.00,2013-08-24 08:59:00,
2013-08-24 05:04:00,56.8,54.2,30.34,NNW,328,0.0,0.0,91,0.00,,,0.00,VWS V14.00,2013-08-24 09:04:00,
2013-08-24 05:10:00,56.8,54.2,30.34,NNW,329,0.0,0.0,91,0.00,,,0.00,VWS V14.00,2013-08-24 09:10:00,
2013-08-24 05:15:00,56.8,54.2,30.34,NNW,328,0.0,0.0,91,0.00,,,0.00,VWS V14.00,2013-08-24 09:15:00,
2013-08-24 05:21:00,56.7,54.1,30.34,NNW,330,0.0,0.0,91,0.00,,,0.00,VWS V14.00,2013-08-24 09:21:00,
2013-08-24 05:26:00,56.7,54.1,30.34,NNW,330,0.0,0.0,91,0.00,,,0.00,VWS V14.00,2013-08-24 09:26:00,
2013-08-24 05:32:00,56.7,54.1,30.34,NNW,330,0.0,0.0,91,0.00,,,0.00,VWS V14.00,2013-08-24 09:32:00,
2013-08-24 05:37:00,56.5,53.9,30.34,NNW,328,0.0,0.0,91,0.00,,,0.00,VWS V14.00,2013-08-24 09:37:00,
2013-08-24 05:43:00,56.5,53.9,30.34,NNW,328,0.0,0.0,91,0.00,,,0.00,VWS V14.00,2013-08-24 09:43:00,
2013-08-24 05:49:00,56.5,53.9,30.34,NNW,330,0.0,0.0,91,0.00,,,0.00,VWS V14.00,2013-08-24 09:49:00,
2013-08-24 05:55:00,56.3,53.7,30.34,NNW,329,0.0,0.0,91,0.00,,,0.00,VWS V14.00,2013-08-24 09:55:00,
2013-08-24 06:00:00,56.3,54.0,30.34,NNW,329,0.0,0.0,92,0.00,,,0.00,VWS V14.00,2013-08-24 10:00:00,
2013-08-24 06:06:00,56.3,54.0,30.34,NNW,330,0.0,0.0,92,0.00,,,0.00,VWS V14.00,2013-08-24 10:06:00,
2013-08-24 06:11:00,56.1,53.8,30.34,NNW,330,0.0,0.0,92,0.00,,,0.00,VWS V14.00,2013-08-24 10:11:00,
2013-08-24 06:17:00,56.1,53.8,30.34,NNW,330,0.0,0.0,92,0.00,,,0.00,VWS V14.00,2013-08-24 10:17:00,
2013-08-24 06:23:00,56.1,53.8,30.34,NNW,330,0.0,0.0,92,0.00,,,0.00,VWS V14.00,2013-08-24 10:23:00,
2013-08-24 06:28:00,55.9,53.7,30.34,NNW,330,0.0,0.0,92,0.00,,,0.00,VWS V14.00,2013-08-24 10:28:00,
2013-08-24 06:34:00,55.9,53.7,30.34,NNW,328,0.0,0.0,92,0.00,,,0.00,VWS V14.00,2013-08-24 10:34:00,
2013-08-24 06:40:00,55.9,53.7,30.34,NNW,328,0.0,0.0,92,0.00,,,0.00,VWS V14.00,2013-08-24 10:40:00,
2013-08-24 06:45:00,55.9,53.7,30.34,NNW,328,0.0,0.0,92,0.00,,,0.00,VWS V14.00,2013-08-24 10:45:00,
2013-08-24 06:50:00,55.9,53.7,30.34,NNW,328,0.0,0.0,92,0.00,,,0.00,VWS V14.00,2013-08-24 10:50:00,
2013-08-24 06:55:00,55.9,53.7,30.34,NNW,329,0.0,0.0,92,0.00,,,0.00,VWS V14.00,2013-08-24 10:55:00,
2013-08-24 07:00:00,55.9,53.7,30.34,NNW,330,0.0,0.0,92,0.00,,,0.00,VWS V14.00,2013-08-24 11:00:00,
2013-08-24 07:05:00,55.8,53.5,30.34,NNW,328,0.0,0.0,92,0.00,,,0.00,VWS V14.00,2013-08-24 11:05:00,
2013-08-24 07:11:00,55.8,53.5,30.34,NNW,330,0.0,0.0,92,0.00,,,0.00,VWS V14.00,2013-08-24 11:11:00,
2013-08-24 07:16:00,55.8,53.8,30.34,NNW,329,0.0,0.0,93,0.00,,,0.00,VWS V14.00,2013-08-24 11:16:00,
2013-08-24 07:21:00,55.8,53.8,30.34,NNW,328,0.0,0.0,93,0.00,,,0.00,VWS V14.00,2013-08-24 11:21:00,
2013-08-24 07:26:00,55.8,53.8,30.34,NNW,329,0.0,0.0,93,0.00,,,0.00,VWS V14.00,2013-08-24 11:26:00,
2013-08-24 07:31:00,55.8,53.8,30.34,NNW,330,0.0,0.0,93,0.00,,,0.00,VWS V14.00,2013-08-24 11:31:00,
2013-08-24 07:37:00,55.8,53.8,30.34,NNW,330,0.0,0.0,93,0.00,,,0.00,VWS V14.00,2013-08-24 11:37:00,
2013-08-24 07:42:00,55.9,54.0,30.34,NNW,328,0.0,0.0,93,0.00,,,0.00,VWS V14.00,2013-08-24 11:42:00,
2013-08-24 07:47:00,55.9,54.0,30.34,NNW,328,0.0,0.0,93,0.00,,,0.00,VWS V14.00,2013-08-24 11:47:00,
2013-08-24 07:53:00,56.1,54.1,30.34,NNW,329,0.0,0.0,93,0.00,,,0.00,VWS V14.00,2013-08-24 11:53:00,
2013-08-24 07:58:00,56.1,54.1,30.34,NNW,328,0.0,0.0,93,0.00,,,0.00,VWS V14.00,2013-08-24 11:58:00,
2013-08-24 08:03:00,56.3,54.6,30.34,NNW,328,0.0,0.0,94,0.00,,,0.00,VWS V14.00,2013-08-24 12:03:00,
2013-08-24 08:08:00,56.5,54.8,30.34,NNW,330,0.0,0.0,94,0.00,,,0.00,VWS V14.00,2013-08-24 12:08:00,
2013-08-24 08:14:00,56.5,54.8,30.34,NNW,328,0.0,0.0,94,0.00,,,0.00,VWS V14.00,2013-08-24 12:14:00,
2013-08-24 08:19:00,56.8,55.1,30.34,NNW,329,0.0,0.0,94,0.00,,,0.00,VWS V14.00,2013-08-24 12:19:00,
2013-08-24 08:25:00,57.7,56.3,30.34,NNW,328,0.0,0.0,95,0.00,,,0.00,VWS V14.00,2013-08-24 12:25:00,
2013-08-24 08:30:00,58.1,56.7,30.34,NNW,328,0.0,0.0,95,0.00,,,0.00,VWS V14.00,2013-08-24 12:30:00,
2013-08-24 08:35:00,58.1,56.7,30.34,NNW,328,0.0,0.0,95,0.00,,,0.00,VWS V14.00,2013-08-24 12:35:00,
2013-08-24 08:40:00,59.0,57.6,30.34,NNW,328,0.0,0.0,95,0.00,,,0.00,VWS V14.00,2013-08-24 12:40:00,
2013-08-24 08:45:00,59.2,57.8,30.34,NNW,328,0.0,0.0,95,0.00,,,0.00,VWS V14.00,2013-08-24 12:45:00,
2013-08-24 08:51:00,60.1,58.9,30.34,NNW,328,0.0,0.0,96,0.00,,,0.00,VWS V14.00,2013-08-24 12:51:00,
2013-08-24 08:57:00,60.4,59.6,30.34,West,260,0.0,0.0,97,0.00,,,0.00,VWS V14.00,2013-08-24 12:57:00,
2013-08-24 09:03:00,60.8,59.7,30.34,West,266,0.0,0.0,96,0.00,,,0.00,VWS V14.00,2013-08-24 13:03:00,
2013-08-24 09:08:00,61.3,60.2,30.34,West,273,0.0,0.0,96,0.00,,,0.00,VWS V14.00,2013-08-24 13:08:00,
2013-08-24 09:14:00,61.7,60.5,30.34,SW,229,0.0,0.0,96,0.00,,,0.00,VWS V14.00,2013-08-24 13:14:00,
2013-08-24 09:19:00,62.1,60.9,30.34,WSW,247,0.0,0.0,96,0.00,,,0.00,VWS V14.00,2013-08-24 13:19:00,
2013-08-24 09:25:00,62.6,61.2,30.34,WSW,248,0.0,0.0,95,0.00,,,0.00,VWS V14.00,2013-08-24 13:25:00,
2013-08-24 09:30:00,62.8,61.0,30.34,WSW,248,0.0,0.0,94,0.00,,,0.00,VWS V14.00,2013-08-24 13:30:00,
2013-08-24 09:36:00,63.3,61.3,30.34,West,280,0.0,0.0,93,0.00,,,0.00,VWS V14.00,2013-08-24 13:36:00,
2013-08-24 09:41:00,63.3,61.3,30.34,West,265,0.0,0.0,93,0.00,,,0.00,VWS V14.00,2013-08-24 13:41:00,
2013-08-24 09:46:00,64.0,61.4,30.34,SW,217,0.0,0.0,91,0.00,,,0.00,VWS V14.00,2013-08-24 13:46:00,
2013-08-24 09:52:00,64.4,61.1,30.34,SSE,162,0.0,0.0,89,0.00,,,0.00,VWS V14.00,2013-08-24 13:52:00,
2013-08-24 09:57:00,64.6,61.3,30.34,WSW,246,0.0,0.0,89,0.00,,,0.00,VWS V14.00,2013-08-24 13:57:00,
2013-08-24 10:03:00,65.1,60.8,30.34,SSE,155,0.0,0.0,86,0.00,,,0.00,VWS V14.00,2013-08-24 14:03:00,
2013-08-24 10:09:00,65.7,60.7,30.34,SSW,212,5.8,5.8,84,0.00,,,0.00,VWS V14.00,2013-08-24 14:09:00,
2013-08-24 10:14:00,65.8,60.5,30.34,SSW,198,0.0,0.0,83,0.00,,,0.00,VWS V14.00,2013-08-24 14:14:00,
2013-08-24 10:20:00,66.6,60.6,30.34,NW,313,0.0,0.0,81,0.00,,,0.00,VWS V14.00,2013-08-24 14:20:00,
2013-08-24 10:25:00,66.9,60.6,30.34,SW,225,0.0,0.0,80,0.00,,,0.00,VWS V14.00,2013-08-24 14:25:00,
2013-08-24 10:30:00,67.1,60.4,30.34,SSW,210,0.0,0.0,79,0.00,,,0.00,VWS V14.00,2013-08-24 14:30:00,
2013-08-24 10:36:00,67.6,60.5,30.34,WNW,287,0.0,0.0,78,0.00,,,0.00,VWS V14.00,2013-08-24 14:36:00,
2013-08-24 10:42:00,68.4,60.5,30.34,SSW,196,0.0,0.0,76,0.00,,,0.00,VWS V14.00,2013-08-24 14:42:00,
2013-08-24 10:48:00,68.5,59.9,30.34,South,169,2.2,2.2,74,0.00,,,0.00,VWS V14.00,2013-08-24 14:48:00,
2013-08-24 10:53:00,68.9,59.9,30.34,NW,309,2.2,2.2,73,0.00,,,0.00,VWS V14.00,2013-08-24 14:53:00,
2013-08-24 10:58:00,69.4,59.6,30.34,NW,320,2.7,2.7,71,0.00,,,0.00,VWS V14.00,2013-08-24 14:58:00,
2013-08-24 11:03:00,69.4,59.6,30.34,SSE,167,0.0,3.6,71,0.00,,,0.00,VWS V14.00,2013-08-24 15:03:00,
2013-08-24 11:08:00,70.0,59.3,30.34,SSE,150,0.0,3.1,69,0.00,,,0.00,VWS V14.00,2013-08-24 15:08:00,
2013-08-24 11:14:00,70.3,59.3,30.34,SSW,211,0.0,3.1,68,0.00,,,0.00,VWS V14.00,2013-08-24 15:14:00,
2013-08-24 11:19:00,70.5,59.5,30.34,SSW,195,3.1,3.1,68,0.00,,,0.00,VWS V14.00,2013-08-24 15:19:00,
2013-08-24 11:24:00,71.1,59.1,30.34,West,268,2.7,2.7,66,0.00,,,0.00,VWS V14.00,2013-08-24 15:24:00,
2013-08-24 11:30:00,71.6,59.2,30.34,WSW,246,2.2,2.2,65,0.00,,,0.00,VWS V14.00,2013-08-24 15:30:00,
2013-08-24 11:35:00,72.1,59.7,30.34,North,357,0.0,0.0,65,0.00,,,0.00,VWS V14.00,2013-08-24 15:35:00,
2013-08-24 11:40:00,72.7,58.9,30.34,SSE,150,3.6,3.6,62,0.00,,,0.00,VWS V14.00,2013-08-24 15:40:00,
2013-08-24 11:45:00,72.9,58.6,30.34,SSW,208,0.0,2.7,61,0.00,,,0.00,VWS V14.00,2013-08-24 15:45:00,
2013-08-24 11:51:00,73.2,58.5,30.34,SSW,208,3.1,3.1,60,0.00,,,0.00,VWS V14.00,2013-08-24 15:51:00,
2013-08-24 11:56:00,73.6,58.4,30.34,WSW,257,2.7,2.7,59,0.00,,,0.00,VWS V14.00,2013-08-24 15:56:00,
2013-08-24 12:02:00,74.1,56.4,30.34,SSW,206,2.7,3.6,54,0.00,,,0.00,VWS V14.00,2013-08-24 16:02:00,
2013-08-24 12:07:00,74.3,55.0,30.34,South,190,2.7,4.0,51,0.00,,,0.00,VWS V14.00,2013-08-24 16:07:00,
2013-08-24 12:12:00,74.5,55.2,30.34,SSW,207,6.3,6.3,51,0.00,,,0.00,VWS V14.00,2013-08-24 16:12:00,
2013-08-24 12:17:00,75.0,52.9,30.34,NW,308,2.7,2.7,46,0.00,,,0.00,VWS V14.00,2013-08-24 16:17:00,
2013-08-24 12:23:00,75.2,55.3,30.34,SSE,163,0.0,0.0,50,0.00,,,0.00,VWS V14.00,2013-08-24 16:23:00,
2013-08-24 12:28:00,75.6,55.6,30.34,South,190,4.9,4.9,50,0.00,,,0.00,VWS V14.00,2013-08-24 16:28:00,
2013-08-24 12:33:00,75.9,53.7,30.34,SSE,162,4.9,4.9,46,0.00,,,0.00,VWS V14.00,2013-08-24 16:33:00,
2013-08-24 12:38:00,76.5,52.3,30.34,SSW,206,5.8,6.3,43,0.00,,,0.00,VWS V14.00,2013-08-24 16:38:00,
2013-08-24 12:43:00,76.6,52.5,30.34,SW,223,3.1,3.1,43,0.00,,,0.00,VWS V14.00,2013-08-24 16:43:00,
2013-08-24 12:48:00,77.2,54.2,30.34,SSW,202,3.6,3.6,45,0.00,,,0.00,VWS V14.00,2013-08-24 16:48:00,
2013-08-24 12:53:00,77.7,53.5,30.43,SW,223,5.8,8.3,43,0.00,,,0.00,VWS V14.00,2013-08-24 16:53:00,
2013-08-24 12:59:00,78.6,53.6,30.43,SSW,209,3.6,3.6,42,0.00,,,0.00,VWS V14.00,2013-08-24 16:59:00,
2013-08-24 13:05:00,79.3,53.6,30.43,SSW,210,3.1,3.1,41,0.00,,,0.00,VWS V14.00,2013-08-24 17:05:00,
2013-08-24 13:10:00,80.1,54.3,30.43,SSW,201,4.0,4.0,41,0.00,,,0.00,VWS V14.00,2013-08-24 17:10:00,
2013-08-24 13:15:00,80.2,53.8,30.43,SSW,205,6.3,6.3,40,0.00,,,0.00,VWS V14.00,2013-08-24 17:15:00,
2013-08-24 13:21:00,81.0,53.7,30.43,SW,234,4.9,6.3,39,0.00,,,0.00,VWS V14.00,2013-08-24 17:21:00,
2013-08-24 13:27:00,81.5,53.5,30.43,SSW,212,4.0,4.0,38,0.00,,,0.00,VWS V14.00,2013-08-24 17:27:00,
2013-08-24 13:33:00,81.9,52.3,30.43,SSW,195,0.0,3.1,36,0.00,,,0.00,VWS V14.00,2013-08-24 17:33:00,
2013-08-24 13:38:00,82.2,53.4,30.43,SSW,211,0.0,0.0,37,0.00,,,0.00,VWS V14.00,2013-08-24 17:38:00,
2013-08-24 13:43:00,82.8,52.3,30.43,SSW,205,5.4,5.4,35,0.00,,,0.00,VWS V14.00,2013-08-24 17:43:00,
2013-08-24 13:48:00,83.3,51.2,30.43,South,181,5.4,5.8,33,0.00,,,0.00,VWS V14.00,2013-08-24 17:48:00,
2013-08-24 13:53:00,83.5,51.4,30.43,South,184,0.0,0.0,33,0.00,,,0.00,VWS V14.00,2013-08-24 17:53:00,
2013-08-24 13:59:00,84.2,50.3,30.43,South,185,4.0,4.0,31,0.00,,,0.00,VWS V14.00,2013-08-24 17:59:00,
2013-08-24 14:05:00,84.6,50.6,30.43,SSW,211,3.6,3.6,31,0.00,,,0.00,VWS V14.00,2013-08-24 18:05:00,
2013-08-24 14:10:00,84.7,50.8,30.43,SSW,208,4.5,4.5,31,0.00,,,0.00,VWS V14.00,2013-08-24 18:10:00,
2013-08-24 14:16:00,85.1,51.1,30.43,WSW,250,2.7,3.1,31,0.00,,,0.00,VWS V14.00,2013-08-24 18:16:00,
2013-08-24 14:22:00,85.6,52.4,30.43,South,179,6.3,6.3,32,0.00,,,0.00,VWS V14.00,2013-08-24 18:22:00,
2013-08-24 14:28:00,86.0,51.9,30.43,SW,224,4.0,4.9,31,0.00,,,0.00,VWS V14.00,2013-08-24 18:28:00,
2013-08-24 14:33:00,86.5,51.5,30.43,SW,224,3.1,4.9,30,0.00,,,0.00,VWS V14.00,2013-08-24 18:33:00,
2013-08-24 14:38:00,87.1,51.9,30.43,SSW,207,0.0,5.4,30,0.00,,,0.00,VWS V14.00,2013-08-24 18:38:00,
2013-08-24 14:43:00,87.1,51.0,30.43,SSW,211,3.6,3.6,29,0.00,,,0.00,VWS V14.00,2013-08-24 18:43:00,
2013-08-24 14:48:00,87.4,51.3,30.43,SSW,210,5.8,5.8,29,0.00,,,0.00,VWS V14.00,2013-08-24 18:48:00,
2013-08-24 14:53:00,87.6,51.5,30.43,SW,233,3.6,3.6,29,0.00,,,0.00,VWS V14.00,2013-08-24 18:53:00,
2013-08-24 14:58:00,87.8,52.5,30.43,SSE,163,0.0,0.0,30,0.00,,,0.00,VWS V14.00,2013-08-24 18:58:00,
2013-08-24 15:03:00,88.0,52.7,30.43,SSW,201,4.0,4.0,30,0.00,,,0.00,VWS V14.00,2013-08-24 19:03:00,
2013-08-24 15:08:00,87.8,51.6,30.43,WSW,249,5.4,5.4,29,0.00,,,0.00,VWS V14.00,2013-08-24 19:08:00,
2013-08-24 15:13:00,87.8,51.6,30.43,SSW,194,5.8,5.8,29,0.00,,,0.00,VWS V14.00,2013-08-24 19:13:00,
2013-08-24 15:18:00,88.0,52.7,30.43,SSW,209,8.1,8.1,30,0.00,,,0.00,VWS V14.00,2013-08-24 19:18:00,
2013-08-24 15:24:00,87.8,52.5,30.43,South,178,4.0,4.0,30,0.00,,,0.00,VWS V14.00,2013-08-24 19:24:00,
2013-08-24 15:29:00,88.0,52.7,30.43,WSW,245,3.1,3.1,30,0.00,,,0.00,VWS V14.00,2013-08-24 19:29:00,
2013-08-24 15:35:00,88.0,51.8,30.43,SW,218,7.2,7.2,29,0.00,,,0.00,VWS V14.00,2013-08-24 19:35:00,
2013-08-24 15:40:00,87.8,51.6,30.43,SSW,206,4.0,4.0,29,0.00,,,0.00,VWS V14.00,2013-08-24 19:40:00,
2013-08-24 15:46:00,87.8,51.6,30.43,WSW,249,4.0,4.0,29,0.00,,,0.00,VWS V14.00,2013-08-24 19:46:00,
2013-08-24 15:51:00,88.2,51.9,30.43,SSW,197,5.8,7.2,29,0.00,,,0.00,VWS V14.00,2013-08-24 19:51:00,
2013-08-24 15:57:00,88.2,51.9,30.40,SW,227,3.6,3.6,29,0.00,,,0.00,VWS V14.00,2013-08-24 19:57:00,
2013-08-24 16:03:00,88.2,51.0,30.40,SSW,209,5.8,5.8,28,0.00,,,0.00,VWS V14.00,2013-08-24 20:03:00,
2013-08-24 16:08:00,88.0,50.8,30.40,SSE,164,7.6,7.6,28,0.00,,,0.00,VWS V14.00,2013-08-24 20:08:00,
2013-08-24 16:14:00,87.8,50.7,30.40,SE,143,0.0,4.0,28,0.00,,,0.00,VWS V14.00,2013-08-24 20:14:00,
2013-08-24 16:19:00,88.0,51.8,30.40,South,179,2.7,2.7,29,0.00,,,0.00,VWS V14.00,2013-08-24 20:19:00,
2013-08-24 16:25:00,88.0,50.8,30.40,SW,231,4.0,5.4,28,0.00,,,0.00,VWS V14.00,2013-08-24 20:25:00,
2013-08-24 16:30:00,88.2,51.0,30.40,SW,222,3.6,3.6,28,0.00,,,0.00,VWS V14.00,2013-08-24 20:30:00,
2013-08-24 16:35:00,88.3,51.1,30.40,SSW,208,3.1,5.8,28,0.00,,,0.00,VWS V14.00,2013-08-24 20:35:00,
2013-08-24 16:40:00,88.3,51.1,30.40,SW,218,4.0,4.9,28,0.00,,,0.00,VWS V14.00,2013-08-24 20:40:00,
2013-08-24 16:46:00,88.5,51.3,30.40,SW,216,0.0,2.2,28,0.00,,,0.00,VWS V14.00,2013-08-24 20:46:00,
2013-08-24 16:52:00,88.5,51.3,30.40,SSW,208,2.7,2.7,28,0.00,,,0.00,VWS V14.00,2013-08-24 20:52:00,
2013-08-24 16:57:00,88.2,51.0,30.40,SSE,152,4.0,5.8,28,0.00,,,0.00,VWS V14.00,2013-08-24 20:57:00,
2013-08-24 17:02:00,88.0,50.8,30.40,South,189,3.6,3.6,28,0.00,,,0.00,VWS V14.00,2013-08-24 21:02:00,
2013-08-24 17:07:00,88.2,51.9,30.40,South,184,2.7,2.7,29,0.00,,,0.00,VWS V14.00,2013-08-24 21:07:00,
2013-08-24 17:13:00,88.2,51.0,30.40,SSW,208,4.0,4.0,28,0.00,,,0.00,VWS V14.00,2013-08-24 21:13:00,
2013-08-24 17:18:00,88.2,51.0,30.40,South,191,3.6,4.0,28,0.00,,,0.00,VWS V14.00,2013-08-24 21:18:00,
2013-08-24 17:24:00,88.2,51.0,30.40,SSW,209,3.6,3.6,28,0.00,,,0.00,VWS V14.00,2013-08-24 21:24:00,
2013-08-24 17:29:00,88.2,51.0,30.40,SSW,194,2.7,2.7,28,0.00,,,0.00,VWS V14.00,2013-08-24 21:29:00,
2013-08-24 17:34:00,88.7,51.4,30.40,SW,225,0.0,0.0,28,0.00,,,0.00,VWS V14.00,2013-08-24 21:34:00,
2013-08-24 17:40:00,88.9,51.6,30.40,SSE,150,0.0,0.0,28,0.00,,,0.00,VWS V14.00,2013-08-24 21:40:00,
2013-08-24 17:45:00,88.7,51.4,30.40,SW,231,3.1,3.1,28,0.00,,,0.00,VWS V14.00,2013-08-24 21:45:00,
2013-08-24 17:50:00,88.7,51.4,30.40,East,83,0.0,0.0,28,0.00,,,0.00,VWS V14.00,2013-08-24 21:50:00,
2013-08-24 17:56:00,88.2,51.0,30.40,West,265,3.6,3.6,28,0.00,,,0.00,VWS V14.00,2013-08-24 21:56:00,
2013-08-24 18:02:00,88.2,51.0,30.40,SSW,205,2.2,2.2,28,0.00,,,0.00,VWS V14.00,2013-08-24 22:02:00,
2013-08-24 18:07:00,88.0,51.8,30.40,SSW,202,2.7,2.7,29,0.00,,,0.00,VWS V14.00,2013-08-24 22:07:00,
2013-08-24 18:12:00,87.6,51.5,30.40,SE,124,0.0,0.0,29,0.00,,,0.00,VWS V14.00,2013-08-24 22:12:00,
2013-08-24 18:18:00,87.4,51.3,30.40,SSW,203,2.7,2.7,29,0.00,,,0.00,VWS V14.00,2013-08-24 22:18:00,
2013-08-24 18:23:00,87.4,51.3,30.37,WSW,245,2.7,4.0,29,0.00,,,0.00,VWS V14.00,2013-08-24 22:23:00,
2013-08-24 18:28:00,87.4,51.3,30.37,SSW,202,2.2,3.1,29,0.00,,,0.00,VWS V14.00,2013-08-24 22:28:00,
2013-08-24 18:34:00,87.3,51.2,30.37,SW,218,0.0,0.0,29,0.00,,,0.00,VWS V14.00,2013-08-24 22:34:00,
2013-08-24 18:39:00,87.1,51.0,30.37,SE,134,0.0,3.1,29,0.00,,,0.00,VWS V14.00,2013-08-24 22:39:00,
2013-08-24 18:45:00,86.5,50.5,30.37,SSW,195,0.0,0.0,29,0.00,,,0.00,VWS V14.00,2013-08-24 22:45:00,
2013-08-24 18:51:00,86.4,51.3,30.37,SSW,201,3.6,3.6,30,0.00,,,0.00,VWS V14.00,2013-08-24 22:51:00,
2013-08-24 18:56:00,86.0,51.0,30.37,SSW,194,0.0,0.0,30,0.00,,,0.00,VWS V14.00,2013-08-24 22:56:00,
2013-08-24 19:01:00,85.6,51.6,30.37,SE,126,0.0,0.0,31,0.00,,,0.00,VWS V14.00,2013-08-24 23:01:00,
2013-08-24 19:06:00,85.6,52.4,30.37,NNW,344,0.0,0.0,32,0.00,,,0.00,VWS V14.00,2013-08-24 23:06:00,
2013-08-24 19:12:00,85.1,51.1,30.37,SW,219,0.0,0.0,31,0.00,,,0.00,VWS V14.00,2013-08-24 23:12:00,
2013-08-24 19:17:00,84.7,50.8,30.37,South,169,0.0,0.0,31,0.00,,,0.00,VWS V14.00,2013-08-24 23:17:00,
2013-08-24 19:23:00,84.4,52.2,30.37,SSE,168,0.0,0.0,33,0.00,,,0.00,VWS V14.00,2013-08-24 23:23:00,
2013-08-24 19:28:00,83.8,51.7,30.37,SE,138,0.0,0.0,33,0.00,,,0.00,VWS V14.00,2013-08-24 23:28:00,
2013-08-24 19:34:00,83.3,51.2,30.37,SSW,203,2.7,2.7,33,0.00,,,0.00,VWS V14.00,2013-08-24 23:34:00,
2013-08-24 19:39:00,82.9,50.9,30.37,SSW,195,0.0,3.1,33,0.00,,,0.00,VWS V14.00,2013-08-24 23:39:00,
2013-08-24 19:44:00,82.9,51.7,30.37,SSW,198,0.0,0.0,34,0.00,,,0.00,VWS V14.00,2013-08-24 23:44:00,
2013-08-24 19:49:00,82.8,51.6,30.37,SW,220,0.0,0.0,34,0.00,,,0.00,VWS V14.00,2013-08-24 23:49:00,
2013-08-24 19:55:00,82.2,51.9,30.37,East,95,0.0,0.0,35,0.00,,,0.00,VWS V14.00,2013-08-24 23:55:00,
2013-08-24 20:01:00,82.0,52.5,30.37,East,95,0.0,0.0,36,0.00,,,0.00,VWS V14.00,2013-08-25 00:01:00,
2013-08-24 20:06:00,81.9,52.3,30.37,NNE,27,0.0,0.0,36,0.00,,,0.00,VWS V14.00,2013-08-25 00:06:00,
2013-08-24 20:12:00,81.5,52.0,30.37,NNE,27,0.0,0.0,36,0.00,,,0.00,VWS V14.00,2013-08-25 00:12:00,
2013-08-24 20:18:00,81.1,52.4,30.37,NNE,27,0.0,0.0,37,0.00,,,0.00,VWS V14.00,2013-08-25 00:18:00,
2013-08-24 20:23:00,80.8,53.5,30.37,NNE,27,0.0,0.0,39,0.00,,,0.00,VWS V14.00,2013-08-25 00:23:00,
2013-08-24 20:28:00,80.2,53.8,30.37,NNE,27,0.0,0.0,40,0.00,,,0.00,VWS V14.00,2013-08-25 00:28:00,
2013-08-24 20:33:00,79.7,53.9,30.37,NNE,27,0.0,0.0,41,0.00,,,0.00,VWS V14.00,2013-08-25 00:33:00,
2013-08-24 20:38:00,79.0,54.0,30.37,NNE,27,0.0,0.0,42,0.00,,,0.00,VWS V14.00,2013-08-25 00:38:00,
2013-08-24 20:43:00,78.6,54.3,30.37,NNE,27,0.0,0.0,43,0.00,,,0.00,VWS V14.00,2013-08-25 00:43:00,
2013-08-24 20:48:00,78.6,54.3,30.37,NNE,27,0.0,0.0,43,0.00,,,0.00,VWS V14.00,2013-08-25 00:48:00,
2013-08-24 20:54:00,78.6,54.3,30.37,NNE,27,0.0,0.0,43,0.00,,,0.00,VWS V14.00,2013-08-25 00:54:00,
2013-08-24 20:59:00,76.8,55.7,30.37,NNE,27,0.0,0.0,48,0.00,,,0.00,VWS V14.00,2013-08-25 00:59:00,
2013-08-24 21:05:00,76.3,55.7,30.37,NNE,27,0.0,0.0,49,0.00,,,0.00,VWS V14.00,2013-08-25 01:05:00,
2013-08-24 21:10:00,75.6,55.6,30.37,NNE,27,0.0,0.0,50,0.00,,,0.00,VWS V14.00,2013-08-25 01:10:00,
2013-08-24 21:16:00,75.0,55.7,30.37,NNE,27,0.0,0.0,51,0.00,,,0.00,VWS V14.00,2013-08-25 01:16:00,
2013-08-24 21:21:00,74.3,56.1,30.37,NNE,27,0.0,0.0,53,0.00,,,0.00,VWS V14.00,2013-08-25 01:21:00,
2013-08-24 21:26:00,73.9,55.8,30.37,NNE,27,0.0,0.0,53,0.00,,,0.00,VWS V14.00,2013-08-25 01:26:00,
2013-08-24 21:32:00,73.6,55.9,30.37,NNE,27,0.0,0.0,54,0.00,,,0.00,VWS V14.00,2013-08-25 01:32:00,
2013-08-24 21:37:00,73.2,55.6,30.37,NNE,27,0.0,0.0,54,0.00,,,0.00,VWS V14.00,2013-08-25 01:37:00,
2013-08-24 21:42:00,72.7,56.1,30.37,NNE,27,0.0,0.0,56,0.00,,,0.00,VWS V14.00,2013-08-25 01:42:00,
2013-08-24 21:48:00,72.3,56.7,30.37,NNE,27,0.0,0.0,58,0.00,,,0.00,VWS V14.00,2013-08-25 01:48:00,
2013-08-24 21:53:00,71.8,57.2,30.37,NNE,27,0.0,0.0,60,0.00,,,0.00,VWS V14.00,2013-08-25 01:53:00,
2013-08-24 21:58:00,71.6,57.0,30.37,NNE,27,0.0,0.0,60,0.00,,,0.00,VWS V14.00,2013-08-25 01:58:00,
2013-08-24 22:03:00,71.1,57.4,30.37,NNE,27,0.0,0.0,62,0.00,,,0.00,VWS V14.00,2013-08-25 02:03:00,
2013-08-24 22:09:00,70.7,57.5,30.37,NNE,27,0.0,0.0,63,0.00,,,0.00,VWS V14.00,2013-08-25 02:09:00,
2013-08-24 22:14:00,70.5,57.8,30.37,NNE,27,0.0,0.0,64,0.00,,,0.00,VWS V14.00,2013-08-25 02:14:00,
2013-08-24 22:20:00,70.0,57.7,30.37,NNE,27,0.0,0.0,65,0.00,,,0.00,VWS V14.00,2013-08-25 02:20:00,
2013-08-24 22:26:00,69.8,57.9,30.37,NNE,27,0.0,0.0,66,0.00,,,0.00,VWS V14.00,2013-08-25 02:26:00,
2013-08-24 22:31:00,69.4,58.0,30.37,NNE,27,0.0,0.0,67,0.00,,,0.00,VWS V14.00,2013-08-25 02:31:00,
2013-08-24 22:37:00,69.1,57.7,30.37,NNE,27,0.0,0.0,67,0.00,,,0.00,VWS V14.00,2013-08-25 02:37:00,
2013-08-24 22:42:00,68.9,57.9,30.37,NNE,27,0.0,0.0,68,0.00,,,0.00,VWS V14.00,2013-08-25 02:42:00,
2013-08-24 22:48:00,68.7,57.7,30.37,NNE,27,0.0,0.0,68,0.00,,,0.00,VWS V14.00,2013-08-25 02:48:00,
2013-08-24 22:54:00,68.4,57.8,30.37,NNE,27,0.0,0.0,69,0.00,,,0.00,VWS V14.00,2013-08-25 02:54:00,
2013-08-24 22:59:00,68.4,57.8,30.37,NNE,27,0.0,0.0,69,0.00,,,0.00,VWS V14.00,2013-08-25 02:59:00,
2013-08-24 23:05:00,68.0,57.5,30.37,NNE,27,0.0,0.0,69,0.00,,,0.00,VWS V14.00,2013-08-25 03:05:00,
2013-08-24 23:10:00,67.8,57.7,30.37,NNE,27,0.0,0.0,70,0.00,,,0.00,VWS V14.00,2013-08-25 03:10:00,
2013-08-24 23:15:00,67.6,57.5,30.37,NNE,27,0.0,0.0,70,0.00,,,0.00,VWS V14.00,2013-08-25 03:15:00,
2013-08-24 23:20:00,67.5,57.3,30.37,NNE,27,0.0,0.0,70,0.00,,,0.00,VWS V14.00,2013-08-25 03:20:00,
2013-08-24 23:25:00,67.1,57.4,30.40,NNE,27,0.0,0.0,71,0.00,,,0.00,VWS V14.00,2013-08-25 03:25:00,
2013-08-24 23:31:00,66.9,57.2,30.40,NNE,27,0.0,0.0,71,0.00,,,0.00,VWS V14.00,2013-08-25 03:31:00,
2013-08-24 23:36:00,66.9,57.2,30.40,NNE,27,0.0,0.0,71,0.00,,,0.00,VWS V14.00,2013-08-25 03:36:00,
2013-08-24 23:41:00,66.7,57.4,30.40,NNE,27,0.0,0.0,72,0.00,,,0.00,VWS V14.00,2013-08-25 03:41:00,
2013-08-24 23:46:00,66.6,57.3,30.40,NNE,27,0.0,0.0,72,0.00,,,0.00,VWS V14.00,2013-08-25 03:46:00,
2013-08-24 23:51:00,66.4,57.1,30.40,NNE,27,0.0,0.0,72,0.00,,,0.00,VWS V14.00,2013-08-25 03:51:00,
2013-08-24 23:57:00,66.2,56.9,30.40,NNE,27,0.0,0.0,72,0.00,,,0.00,VWS V14.00,2013-08-25 03:57:00,